• în Republica Moldova
  • Lista ţărilor
  • Pe 7 zile
  • Temperatura apei
  • Hartă satelitară
  • Meteo pe hartă
  • Widget-uri
  • user-avatar
    Intrare

    Meteo pe oră la Lubango

    Astăzi, 18 August, Vineri

    Timp Temperatura Precipitaţii Vânt Presiune Umiditate
    00:00 +10°C° 0 mm 0 m/s 607 mmHg 77%
    01:00 +10°C° 0 mm 0 m/s 607 mmHg 77%
    02:00 +10°C° 0 mm 0 m/s 607 mmHg 76%
    03:00 +9°C° 0 mm 0 m/s 607 mmHg 74%
    04:00 +9°C° 0 mm 0 m/s 607 mmHg 72%
    05:00 +11°C° 0 mm 1 m/s 607 mmHg 67%
    06:00 +11°C° 0 mm 1 m/s 607 mmHg 62%
    07:00 +13°C° 0 mm 1 m/s 609 mmHg 53%
    08:00 +16°C° 0 mm 1 m/s 610 mmHg 44%
    09:00 +19°C° 0 mm 2 m/s 611 mmHg 34%
    10:00 +23°C° 0 mm 2 m/s 612 mmHg 25%
    11:00 +24°C° 0 mm 2 m/s 612 mmHg 22%
    12:00 +26°C° 0 mm 2 m/s 612 mmHg 19%
    13:00 +27°C° 0 mm 2 m/s 612 mmHg 16%
    14:00 +27°C° 0 mm 2 m/s 612 mmHg 16%
    15:00 +27°C° 0 mm 2 m/s 611 mmHg 17%
    16:00 +27°C° 0 mm 2 m/s 611 mmHg 18%
    17:00 +24°C° 0 mm 2 m/s 610 mmHg 27%
    18:00 +19°C° 0 mm 2 m/s 609 mmHg 37%
    19:00 +16°C° 0 mm 2 m/s 608 mmHg 47%
    20:00 +15°C° 0 mm 1 m/s 608 mmHg 53%
    21:00 +14°C° 0 mm 1 m/s 608 mmHg 59%
    22:00 +12°C° 0 mm 0 m/s 608 mmHg 66%
    23:00 +11°C° 0 mm 0 m/s 608 mmHg 66%

    Mâine, 19 August, Sâmbătă

    Timp Temperatura Precipitaţii Vânt Presiune Umiditate
    00:00 +11°C° 0 mm 0 m/s 608 mmHg 67%
    01:00 +10°C° 0 mm 0 m/s 608 mmHg 67%
    02:00 +11°C° 0 mm 1 m/s 607 mmHg 67%
    03:00 +11°C° 0 mm 1 m/s 607 mmHg 66%
    04:00 +11°C° 0 mm 1 m/s 607 mmHg 66%
    05:00 +11°C° 0 mm 1 m/s 607 mmHg 62%
    06:00 +11°C° 0 mm 1 m/s 608 mmHg 57%
    07:00 +12°C° 0 mm 1 m/s 608 mmHg 53%
    08:00 +16°C° 0 mm 2 m/s 610 mmHg 40%
    09:00 +20°C° 0 mm 3 m/s 611 mmHg 28%
    10:00 +25°C° 0 mm 3 m/s 613 mmHg 16%
    11:00 +26°C° 0 mm 3 m/s 613 mmHg 14%
    12:00 +28°C° 0 mm 3 m/s 613 mmHg 13%
    13:00 +30°C° 0 mm 3 m/s 613 mmHg 11%
    14:00 +29°C° 0 mm 3 m/s 612 mmHg 13%
    15:00 +28°C° 0 mm 3 m/s 612 mmHg 15%
    16:00 +28°C° 0 mm 4 m/s 611 mmHg 16%
    17:00 +24°C° 0 mm 3 m/s 611 mmHg 26%
    18:00 +20°C° 0 mm 2 m/s 610 mmHg 36%
    19:00 +17°C° 0 mm 2 m/s 609 mmHg 46%
    20:00 +16°C° 0 mm 1 m/s 609 mmHg 50%
    21:00 +15°C° 0 mm 1 m/s 609 mmHg 54%
    22:00 +14°C° 0 mm 1 m/s 609 mmHg 58%
    23:00 +14°C° 0 mm 1 m/s 609 mmHg 58%

    Poimâine, 20 August, Duminică

    Timp Temperatura Precipitaţii Vânt Presiune Umiditate
    00:00 +13°C° 0 mm 1 m/s 609 mmHg 57%
    01:00 +13°C° 0 mm 1 m/s 609 mmHg 56%
    02:00 +13°C° 0 mm 1 m/s 609 mmHg 53%
    03:00 +13°C° 0 mm 1 m/s 608 mmHg 50%
    04:00 +13°C° 0 mm 1 m/s 608 mmHg 47%
    05:00 +13°C° 0 mm 1 m/s 609 mmHg 43%
    06:00 +13°C° 0 mm 1 m/s 609 mmHg 39%
    07:00 +13°C° 0 mm 1 m/s 609 mmHg 35%
    08:00 +17°C° 0 mm 2 m/s 611 mmHg 28%
    09:00 +21°C° 0 mm 3 m/s 613 mmHg 20%
    10:00 +26°C° 0 mm 4 m/s 615 mmHg 12%
    11:00 +28°C° 0 mm 4 m/s 614 mmHg 11%
    12:00 +29°C° 0 mm 3 m/s 614 mmHg 10%
    13:00 +31°C° 0 mm 3 m/s 614 mmHg 9%
    14:00 +30°C° 0 mm 3 m/s 613 mmHg 10%
    15:00 +30°C° 0 mm 3 m/s 613 mmHg 11%
    16:00 +29°C° 0 mm 3 m/s 612 mmHg 12%
    17:00 +26°C° 0 mm 2 m/s 611 mmHg 19%
    18:00 +21°C° 0 mm 2 m/s 610 mmHg 26%
    19:00 +18°C° 0 mm 2 m/s 610 mmHg 33%
    20:00 +18°C° 0 mm 1 m/s 610 mmHg 36%
    21:00 +16°C° 0 mm 1 m/s 610 mmHg 39%
    22:00 +15°C° 0 mm 1 m/s 610 mmHg 42%
    23:00 +14°C° 0 mm 1 m/s 610 mmHg 42%

    21 August, Luni

    Timp Temperatura Precipitaţii Vânt Presiune Umiditate
    00:00 +14°C° 0 mm 1 m/s 610 mmHg 41%
    01:00 +14°C° 0 mm 1 m/s 609 mmHg 41%
    02:00 +13°C° 0 mm 1 m/s 609 mmHg 40%
    03:00 +13°C° 0 mm 1 m/s 609 mmHg 40%
    04:00 +13°C° 0 mm 1 m/s 609 mmHg 40%
    05:00 +13°C° 0 mm 1 m/s 609 mmHg 37%
    06:00 +13°C° 0 mm 1 m/s 609 mmHg 35%
    07:00 +14°C° 0 mm 1 m/s 610 mmHg 32%
    08:00 +18°C° 0 mm 3 m/s 611 mmHg 26%
    09:00 +22°C° 0 mm 4 m/s 613 mmHg 21%
    10:00 +27°C° 0 mm 5 m/s 614 mmHg 15%
    11:00 +28°C° 0 mm 5 m/s 614 mmHg 14%
    12:00 +30°C° 0 mm 5 m/s 614 mmHg 13%
    13:00 +32°C° 0 mm 4 m/s 614 mmHg 12%
    14:00 +30°C° 0 mm 4 m/s 613 mmHg 13%
    15:00 +30°C° 0 mm 3 m/s 613 mmHg 14%
    16:00 +29°C° 0 mm 3 m/s 612 mmHg 15%
    17:00 +26°C° 0 mm 2 m/s 611 mmHg 22%
    18:00 +21°C° 0 mm 2 m/s 610 mmHg 29%
    19:00 +19°C° 0 mm 1 m/s 610 mmHg 36%
    20:00 +18°C° 0 mm 1 m/s 610 mmHg 38%
    21:00 +16°C° 0 mm 1 m/s 610 mmHg 41%
    22:00 +15°C° 0 mm 1 m/s 610 mmHg 43%
    23:00 +15°C° 0 mm 1 m/s 609 mmHg 42%

    22 August, Marţi

    Timp Temperatura Precipitaţii Vânt Presiune Umiditate
    00:00 +15°C° 0 mm 1 m/s 609 mmHg 41%
    01:00 +14°C° 0 mm 1 m/s 609 mmHg 40%
    02:00 +14°C° 0 mm 2 m/s 608 mmHg 38%
    03:00 +14°C° 0 mm 2 m/s 608 mmHg 35%
    04:00 +14°C° 0 mm 2 m/s 608 mmHg 32%
    05:00 +14°C° 0 mm 2 m/s 608 mmHg 29%
    06:00 +14°C° 0 mm 2 m/s 609 mmHg 26%
    07:00 +15°C° 0 mm 2 m/s 609 mmHg 23%
    08:00 +19°C° 0 mm 3 m/s 611 mmHg 18%
    09:00 +22°C° 0 mm 4 m/s 612 mmHg 14%
    10:00 +27°C° 0 mm 4 m/s 614 mmHg 10%
    11:00 +28°C° 0 mm 4 m/s 614 mmHg 9%
    12:00 +30°C° 0 mm 4 m/s 613 mmHg 8%
    13:00 +31°C° 0 mm 3 m/s 613 mmHg 8%
    14:00 +31°C° 0 mm 3 m/s 612 mmHg 9%
    15:00 +30°C° 0 mm 3 m/s 612 mmHg 10%
    16:00 +30°C° 0 mm 3 m/s 611 mmHg 12%
    17:00 +26°C° 0 mm 3 m/s 610 mmHg 20%
    18:00 +21°C° 0 mm 2 m/s 609 mmHg 28%
    19:00 +18°C° 0 mm 2 m/s 608 mmHg 36%
    20:00 +18°C° 0 mm 1 m/s 608 mmHg 40%
    21:00 +16°C° 0 mm 1 m/s 608 mmHg 44%
    22:00 +15°C° 0 mm 1 m/s 608 mmHg 48%
    23:00 +14°C° 0 mm 1 m/s 608 mmHg 47%

    23 August, Miercuri

    Timp Temperatura Precipitaţii Vânt Presiune Umiditate
    00:00 +14°C° 0 mm 1 m/s 607 mmHg 46%
    01:00 +14°C° 0 mm 1 m/s 607 mmHg 45%
    02:00 +13°C° 0 mm 1 m/s 607 mmHg 44%
    03:00 +13°C° 0 mm 1 m/s 607 mmHg 43%
    04:00 +13°C° 0 mm 1 m/s 607 mmHg 42%
    05:00 +13°C° 0 mm 1 m/s 607 mmHg 39%
    06:00 +13°C° 0 mm 1 m/s 608 mmHg 36%
    07:00 +13°C° 0 mm 1 m/s 608 mmHg 32%
    08:00 +17°C° 0 mm 2 m/s 610 mmHg 26%
    09:00 +21°C° 0 mm 2 m/s 611 mmHg 19%
    10:00 +26°C° 0 mm 3 m/s 613 mmHg 13%
    11:00 +27°C° 0 mm 3 m/s 612 mmHg 12%
    12:00 +29°C° 0 mm 3 m/s 612 mmHg 11%
    13:00 +30°C° 0 mm 2 m/s 612 mmHg 11%
    14:00 +29°C° 0 mm 3 m/s 611 mmHg 13%
    15:00 +28°C° 0 mm 3 m/s 610 mmHg 16%
    16:00 +27°C° 0 mm 3 m/s 610 mmHg 19%
    17:00 +24°C° 0 mm 3 m/s 609 mmHg 31%
    18:00 +19°C° 0 mm 2 m/s 608 mmHg 44%
    19:00 +16°C° 0 mm 2 m/s 607 mmHg 56%
    20:00 +15°C° 0 mm 2 m/s 607 mmHg 62%
    21:00 +14°C° 0 mm 1 m/s 607 mmHg 67%
    22:00 +13°C° 0 mm 1 m/s 607 mmHg 73%
    23:00 +12°C° 0 mm 1 m/s 607 mmHg 74%
    Arată mai mult